ELECTRON KICK STAGE R/B (47254 NORAD) Tracking and Keplerian Element Data

This shows tracking and keplerian element data for the satellite.

Feedback or suggestion? Click here.




ElementValue
Catalog47254
NameELECTRON KICK STAGE R/B
Epoch Orbit444
Epoch Day13.72767439
Epoch Year2021
RAAN270.7198
Inclination97.3755
Eccentricity0.0014564
Argument of Perigee178.4006
Mean Anonmoly181.7279
Mean Motion15.21027304
Decay Rate1.34E-05
L11 47254U 20098B 21013.72767439 .00001340 00000-0 63351-4 0 9993
L22 47254 97.3755 270.7198 0014564 178.4006 181.7279 15.21027304 4442



Live tracking and technical data element details for ELECTRON KICK STAGE R/B (NORAD 47254). ELECTRON KICK STAGE R/B can be tracked NOW for your location showing map with azimuth and elevation plus other details from your city location.







IsCatalogInMostPopularTable: catalog: 47254, numindb: 111
Update: records affected: 1



GetName: 47254 ELECTRON KICK STAGE R/B

Hit Count: updated at: Sun, 11 Jun 2023 01:46:28 GMT